Вернуться в каталог

COSMOS 2251 DEB

АктивенLEO
NORAD 34619·DEBRIS·🇷🇺 Russia

Запущен Jun 16, 1993 с Plesetsk Cosmodrome

Loading…

Ближайшие Пролёты (ближайшие 24 часа)

TLE

СвежийSource: Space-Track

Эпоха: Sep 13, 2026, 09:00 UTC

1 34619U 93036WQ  26256.37544031  .00000643  00000-0  11790-3 0  9996
2 34619  74.0451  31.8692 0091952  55.9016 305.0835 14.65258852933204

Отслеживайте COSMOS 2251 DEB в реальном времени с AllMySat

Download on the App Store